Time,TemperatureF,DewpointF,PressureIn,WindDirection,WindDirectionDegrees,WindSpeedMPH,WindSpeedGustMPH,Humidity,HourlyPrecipIn,Conditions,Clouds,dailyrainin,SoftwareType,DateUTC
2013-02-12 15:05:00,31.1,21.4,29.93,NW,309,5.0,6.0,67,0.00, +TSGR FG,SKC,-99.99,VWS V12.07,2013-02-12 21:05:00,
2013-02-12 15:10:00,30.9,21.2,29.93,West,261,5.0,9.0,67,0.00, +TSGR FG,SKC,-99.99,VWS V12.07,2013-02-12 21:10:00,
2013-02-12 15:15:00,30.7,21.1,29.93,WSW,246,0.0,7.0,67,0.00, +TSGR FG,SKC,-99.99,VWS V12.07,2013-02-12 21:15:00,
2013-02-12 15:25:00,30.2,20.9,29.92,WNW,299,3.0,7.0,68,0.00, +TSGR FG,SKC,-99.99,VWS V12.07,2013-02-12 21:25:00,
2013-02-12 15:30:00,29.8,20.5,29.92,NW,304,3.0,8.0,68,0.00, +TSGR FG,SKC,-99.99,VWS V12.07,2013-02-12 21:30:00,
2013-02-12 15:40:00,29.1,20.5,29.92,SSW,200,0.0,8.0,70,0.00, +TSGR FG,SKC,-99.99,VWS V12.07,2013-02-12 21:40:00,
2013-02-12 15:45:00,28.9,20.7,29.93,WNW,295,2.0,8.0,71,0.00, +TSGR FG,SKC,-99.99,VWS V12.07,2013-02-12 21:45:00,
2013-02-12 15:55:00,28.3,20.4,29.93,WSW,244,3.0,9.0,72,0.00, +TSGR FG,SKC,-99.99,VWS V12.07,2013-02-12 21:55:00,
2013-02-12 16:00:00,28.1,20.6,29.93,West,260,4.0,11.0,73,0.00, +TSGR FG,SKC,-99.99,VWS V12.07,2013-02-12 22:00:00,
2013-02-12 16:05:00,28.0,20.8,29.93,SW,220,2.0,9.0,74,0.00, +TSGR FG,SKC,-99.99,VWS V12.07,2013-02-12 22:05:00,
2013-02-12 16:10:00,28.0,20.8,29.93,West,260,4.0,9.0,74,0.00, +TSGR FG,SKC,-99.99,VWS V12.07,2013-02-12 22:10:00,
2013-02-12 16:15:00,27.9,20.7,29.93,West,267,1.0,8.0,74,0.00, +TSGR FG,SKC,-99.99,VWS V12.07,2013-02-12 22:15:00,
2013-02-12 16:20:00,27.8,20.9,29.93,WSW,251,1.0,8.0,75,0.00, +TSGR FG,SKC,-99.99,VWS V12.07,2013-02-12 22:20:00,
2013-02-12 16:25:00,27.6,20.7,29.93,West,267,2.0,8.0,75,0.00, +TSGR FG,SKC,-99.99,VWS V12.07,2013-02-12 22:25:00,
2013-02-12 16:30:00,27.5,20.6,29.93,WSW,240,2.0,8.0,75,0.00, +TSGR FG,SKC,-99.99,VWS V12.07,2013-02-12 22:30:00,
2013-02-12 16:35:00,27.3,20.8,29.92,SSW,200,3.0,6.0,76,0.00, +TSGR FG,SKC,-99.99,VWS V12.07,2013-02-12 22:35:00,
2013-02-12 16:40:00,27.1,20.5,29.92,WNW,285,2.0,6.0,76,0.00, +TSGR FG,SKC,-99.99,VWS V12.07,2013-02-12 22:40:00,
2013-02-12 16:45:00,26.9,20.4,29.92,WSW,242,2.0,5.0,76,0.00, +TSGR FG,SKC,-99.99,VWS V12.07,2013-02-12 22:45:00,
2013-02-12 16:50:00,26.8,20.6,29.92,SW,225,2.0,6.0,77,0.00, +TSGR FG,SKC,-99.99,VWS V12.07,2013-02-12 22:50:00,
2013-02-12 16:55:00,26.6,20.4,29.92,SW,235,1.0,6.0,77,0.00, +TSGR FG,SKC,-99.99,VWS V12.07,2013-02-12 22:55:00,
2013-02-12 17:00:00,26.5,20.6,29.91,WNW,296,2.0,6.0,78,0.00, +TSGR FG,SKC,-99.99,VWS V12.07,2013-02-12 23:00:00,
2013-02-12 17:05:00,26.3,20.4,29.92,SW,226,0.0,6.0,78,0.00, +TSGR FG,SKC,-99.99,VWS V12.07,2013-02-12 23:05:00,
2013-02-12 17:10:00,26.2,20.6,29.92,SW,216,3.0,6.0,79,0.00, +TSGR FG,SKC,-99.99,VWS V12.07,2013-02-12 23:10:00,
2013-02-12 17:15:00,26.2,20.6,29.92,West,263,0.0,9.0,79,0.00, +TSGR FG,SKC,-99.99,VWS V12.07,2013-02-12 23:15:00,
2013-02-12 17:20:00,26.0,20.4,29.92,SSW,207,1.0,9.0,79,0.00, +TSGR FG,SKC,-99.99,VWS V12.07,2013-02-12 23:20:00,
2013-02-12 17:25:00,26.0,20.4,29.92,SSW,194,0.0,6.0,79,0.00, +TSGR FG,SKC,-99.99,VWS V12.07,2013-02-12 23:25:00,
2013-02-12 17:35:00,25.7,20.4,29.92,SW,225,2.0,4.0,80,0.00, +TSGR FG,SKC,-99.99,VWS V12.07,2013-02-12 23:35:00,
2013-02-12 17:40:00,25.7,20.4,29.92,SSW,196,0.0,4.0,80,0.00, +TSGR FG,SKC,-99.99,VWS V12.07,2013-02-12 23:40:00,
2013-02-12 17:45:00,25.6,20.3,29.92,SSW,196,3.0,3.0,80,0.00, +TSGR FG,SKC,-99.99,VWS V12.07,2013-02-12 23:45:00,
2013-02-12 17:50:00,25.5,20.5,29.92,SW,222,2.0,5.0,81,0.00, +TSGR FG,SKC,-99.99,VWS V12.07,2013-02-12 23:50:00,
2013-02-12 17:55:00,25.4,20.4,29.92,SW,222,1.0,3.0,81,0.00, +TSGR FG,SKC,-99.99,VWS V12.07,2013-02-12 23:55:00,
2013-02-12 18:00:00,25.4,20.4,29.92,WSW,248,1.0,4.0,81,0.00, +TSGR FG,SKC,-99.99,VWS V12.07,2013-02-13 00:00:00,
2013-02-12 18:05:00,25.2,20.2,29.92,SW,215,1.0,4.0,81,0.00, +TSGR FG,SKC,-99.99,VWS V12.07,2013-02-13 00:05:00,
2013-02-12 18:10:00,25.1,20.1,29.92,WSW,237,0.0,4.0,81,0.00, +TSGR FG,SKC,-99.99,VWS V12.07,2013-02-13 00:10:00,
2013-02-12 18:15:00,25.0,20.3,29.91,WSW,240,1.0,5.0,82,0.00, +TSGR FG,SKC,-99.99,VWS V12.07,2013-02-13 00:15:00,
2013-02-12 18:20:00,24.9,20.2,29.91,SSW,211,0.0,5.0,82,0.00, +TSGR FG,SKC,-99.99,VWS V12.07,2013-02-13 00:20:00,
2013-02-12 18:25:00,24.8,20.1,29.91,SW,221,0.0,4.0,82,0.00, +TSGR FG,SKC,-99.99,VWS V12.07,2013-02-13 00:25:00,
2013-02-12 18:30:00,24.7,20.0,29.91,SW,221,1.0,4.0,82,0.00, +TSGR FG,SKC,-99.99,VWS V12.07,2013-02-13 00:30:00,
2013-02-12 18:35:00,24.6,19.9,29.91,SSW,206,0.0,2.0,82,0.00, +TSGR FG,SKC,-99.99,VWS V12.07,2013-02-13 00:35:00,
2013-02-12 18:40:00,24.4,20.0,29.91,SSW,206,1.0,2.0,83,0.00, +TSGR FG,SKC,-99.99,VWS V12.07,2013-02-13 00:40:00,
2013-02-12 18:45:00,24.3,19.9,29.90,SSW,206,0.0,1.0,83,0.00, +TSGR FG,SKC,-99.99,VWS V12.07,2013-02-13 00:45:00,
2013-02-12 18:50:00,24.2,19.8,29.90,SSW,206,0.0,2.0,83,0.00, +TSGR FG,SKC,-99.99,VWS V12.07,2013-02-13 00:50:00,
2013-02-12 18:55:00,24.1,20.0,29.90,SSW,206,0.0,1.0,84,0.00, +TSGR FG,SKC,-99.99,VWS V12.07,2013-02-13 00:55:00,
2013-02-12 19:00:00,24.0,19.9,29.90,SSW,206,0.0,3.0,84,0.00, +TSGR FG,SKC,-99.99,VWS V12.07,2013-02-13 01:00:00,
2013-02-12 19:05:00,23.8,19.7,29.90,SW,229,0.0,2.0,84,0.00, +TSGR FG,SKC,-99.99,VWS V12.07,2013-02-13 01:05:00,
2013-02-12 19:10:00,23.8,20.0,29.90,SW,229,0.0,2.0,85,0.00, +TSGR FG,SKC,-99.99,VWS V12.07,2013-02-13 01:10:00,
2013-02-12 19:15:00,23.7,19.9,29.90,SW,229,0.0,2.0,85,0.00, +TSGR FG,SKC,-99.99,VWS V12.07,2013-02-13 01:15:00,
2013-02-12 19:20:00,23.6,19.8,29.90,SW,229,2.0,3.0,85,0.00, +TSGR FG,SKC,-99.99,VWS V12.07,2013-02-13 01:20:00,
2013-02-12 19:25:00,23.6,20.0,29.90,SW,229,0.0,1.0,86,0.00, +TSGR FG,SKC,-99.99,VWS V12.07,2013-02-13 01:25:00,
2013-02-12 19:30:00,23.4,19.6,29.90,SW,229,0.0,1.0,85,0.00, +TSGR FG,SKC,-99.99,VWS V12.07,2013-02-13 01:30:00,
2013-02-12 19:35:00,23.3,19.7,29.90,SW,227,0.0,2.0,86,0.00, +TSGR FG,SKC,-99.99,VWS V12.07,2013-02-13 01:35:00,
2013-02-12 19:40:00,23.1,19.5,29.89,SW,227,0.0,3.0,86,0.00, +TSGR FG,SKC,-99.99,VWS V12.07,2013-02-13 01:40:00,
2013-02-12 19:45:00,23.0,19.5,29.90,SW,227,1.0,1.0,86,0.00, +TSGR FG,SKC,-99.99,VWS V12.07,2013-02-13 01:45:00,
2013-02-12 19:50:00,22.9,19.6,29.89,SW,227,0.0,2.0,87,0.00, +TSGR FG,SKC,-99.99,VWS V12.07,2013-02-13 01:50:00,
2013-02-12 19:55:00,22.8,19.5,29.89,SW,227,0.0,1.0,87,0.00, +TSGR FG,SKC,-99.99,VWS V12.07,2013-02-13 01:55:00,
2013-02-12 20:00:00,22.8,19.5,29.89,SW,227,0.0,2.0,87,0.00, +TSGR FG,SKC,-99.99,VWS V12.07,2013-02-13 02:00:00,
2013-02-12 20:05:00,22.7,19.4,29.89,SW,227,0.0,2.0,87,0.00, +TSGR FG,SKC,-99.99,VWS V12.07,2013-02-13 02:05:00,
2013-02-12 20:10:00,22.7,19.7,29.89,SW,227,2.0,2.0,88,0.00, +TSGR FG,SKC,-99.99,VWS V12.07,2013-02-13 02:10:00,
2013-02-12 20:15:00,22.7,19.7,29.89,SW,227,0.0,2.0,88,0.00, +TSGR FG,SKC,-99.99,VWS V12.07,2013-02-13 02:15:00,
2013-02-12 20:20:00,22.7,19.7,29.89,SW,227,0.0,2.0,88,0.00, +TSGR FG,SKC,-99.99,VWS V12.07,2013-02-13 02:20:00,
2013-02-12 20:25:00,22.5,19.5,29.89,SW,227,0.0,0.0,88,0.00, +TSGR FG,SKC,-99.99,VWS V12.07,2013-02-13 02:25:00,
2013-02-12 20:30:00,22.4,19.4,29.89,SW,227,0.0,0.0,88,0.00, +TSGR FG,SKC,-99.99,VWS V12.07,2013-02-13 02:30:00,
2013-02-12 20:35:00,22.2,19.2,29.89,SW,227,0.0,0.0,88,0.00, +TSGR FG,SKC,-99.99,VWS V12.07,2013-02-13 02:35:00,
2013-02-12 20:40:00,21.9,18.9,29.89,SW,227,0.0,0.0,88,0.00, +TSGR FG,SKC,-99.99,VWS V12.07,2013-02-13 02:40:00,
2013-02-12 20:45:00,21.7,18.7,29.89,SW,227,0.0,0.0,88,0.00, +TSGR FG,SKC,-99.99,VWS V12.07,2013-02-13 02:45:00,
2013-02-12 20:50:00,21.7,19.0,29.89,SW,227,0.0,3.0,89,0.00, +TSGR FG,SKC,-99.99,VWS V12.07,2013-02-13 02:50:00,
2013-02-12 20:55:00,21.7,19.0,29.89,SW,227,0.0,0.0,89,0.00, +TSGR FG,SKC,-99.99,VWS V12.07,2013-02-13 02:55:00,
2013-02-12 21:00:00,21.7,19.2,29.88,SW,227,0.0,0.0,90,0.00, +TSGR FG,SKC,-99.99,VWS V12.07,2013-02-13 03:00:00,
2013-02-12 21:05:00,21.7,19.2,29.88,SW,227,0.0,0.0,90,0.00, +TSGR FG,SKC,-99.99,VWS V12.07,2013-02-13 03:05:00,
2013-02-12 21:10:00,21.6,19.1,29.88,SW,227,0.0,0.0,90,0.00, +TSGR FG,SKC,-99.99,VWS V12.07,2013-02-13 03:10:00,
2013-02-12 21:15:00,21.5,19.0,29.88,SW,227,0.0,0.0,90,0.00, +TSGR FG,SKC,-99.99,VWS V12.07,2013-02-13 03:15:00,
2013-02-12 21:20:00,21.5,19.0,29.88,SW,227,0.0,0.0,90,0.00, +TSGR FG,SKC,-99.99,VWS V12.07,2013-02-13 03:20:00,
2013-02-12 21:25:00,21.3,18.8,29.88,SW,227,0.0,0.0,90,0.00, +TSGR FG,SKC,-99.99,VWS V12.07,2013-02-13 03:25:00,
2013-02-12 21:30:00,21.4,19.2,29.87,SW,227,0.0,1.0,91,0.00, +TSGR FG,SKC,-99.99,VWS V12.07,2013-02-13 03:30:00,
2013-02-12 21:35:00,21.5,19.3,29.87,SW,227,0.0,0.0,91,0.00, +TSGR FG,SKC,-99.99,VWS V12.07,2013-02-13 03:35:00,
2013-02-12 21:40:00,21.5,19.3,29.87,SW,227,0.0,0.0,91,0.00, +TSGR FG,SKC,-99.99,VWS V12.07,2013-02-13 03:40:00,
2013-02-12 21:50:00,21.5,19.3,29.87,SW,227,0.0,1.0,91,0.00, +TSGR FG,SKC,-99.99,VWS V12.07,2013-02-13 03:50:00,
2013-02-12 21:55:00,21.5,19.3,29.86,SW,227,0.0,3.0,91,0.00, +TSGR FG,SKC,-99.99,VWS V12.07,2013-02-13 03:55:00,
2013-02-12 22:00:00,21.6,19.4,29.86,SW,227,0.0,3.0,91,0.00, +TSGR FG,SKC,-99.99,VWS V12.07,2013-02-13 04:00:00,
2013-02-12 22:05:00,21.7,19.5,29.86,SW,227,0.0,2.0,91,0.00, +TSGR FG,SKC,-99.99,VWS V12.07,2013-02-13 04:05:00,
2013-02-12 22:10:00,22.0,20.0,29.86,SW,227,0.0,3.0,92,0.00, +TSGR FG,SKC,-99.99,VWS V12.07,2013-02-13 04:10:00,
2013-02-12 22:15:00,22.4,20.4,29.86,SSW,211,0.0,3.0,92,0.00, +TSGR FG,SKC,-99.99,VWS V12.07,2013-02-13 04:15:00,
2013-02-12 22:20:00,22.6,20.6,29.86,WSW,243,2.0,4.0,92,0.00, +TSGR FG,SKC,-99.99,VWS V12.07,2013-02-13 04:20:00,
2013-02-12 22:25:00,22.9,20.9,29.85,WSW,240,0.0,2.0,92,0.00, +TSGR FG,SKC,-99.99,VWS V12.07,2013-02-13 04:25:00,
2013-02-12 22:30:00,23.0,21.0,29.85,SSW,211,0.0,3.0,92,0.00, +TSGR FG,SKC,-99.99,VWS V12.07,2013-02-13 04:30:00,
2013-02-12 22:35:00,23.1,20.9,29.85,SW,225,4.0,4.0,91,0.00, +TSGR FG,SKC,-99.99,VWS V12.07,2013-02-13 04:35:00,
2013-02-12 22:40:00,23.2,21.0,29.85,SW,228,5.0,5.0,91,0.00, +TSGR FG,SKC,-99.99,VWS V12.07,2013-02-13 04:40:00,
2013-02-12 22:45:00,23.3,21.1,29.85,SSW,200,3.0,4.0,91,0.00, +TSGR FG,SKC,-99.99,VWS V12.07,2013-02-13 04:45:00,
2013-02-12 22:50:00,23.2,21.0,29.85,WSW,245,1.0,5.0,91,0.00, +TSGR FG,SKC,-99.99,VWS V12.07,2013-02-13 04:50:00,
2013-02-12 22:55:00,23.1,20.9,29.85,SSW,205,0.0,3.0,91,0.00, +TSGR FG,SKC,-99.99,VWS V12.07,2013-02-13 04:55:00,
2013-02-12 23:00:00,23.1,20.9,29.84,WSW,258,1.0,3.0,91,0.00, +TSGR FG,SKC,-99.99,VWS V12.07,2013-02-13 05:00:00,
2013-02-12 23:05:00,23.2,21.0,29.84,WSW,258,2.0,2.0,91,0.00, +TSGR FG,SKC,-99.99,VWS V12.07,2013-02-13 05:05:00,
2013-02-12 23:10:00,23.2,21.0,29.84,SSW,212,0.0,4.0,91,0.00, +TSGR FG,SKC,-99.99,VWS V12.07,2013-02-13 05:10:00,
2013-02-12 23:15:00,23.2,21.0,29.84,SSW,212,2.0,2.0,91,0.00, +TSGR FG,SKC,-99.99,VWS V12.07,2013-02-13 05:15:00,
2013-02-12 23:20:00,23.4,21.2,29.84,SSW,212,0.0,2.0,91,0.00, +TSGR FG,SKC,-99.99,VWS V12.07,2013-02-13 05:20:00,
2013-02-12 23:25:00,23.5,21.3,29.84,SW,215,0.0,2.0,91,0.00, +TSGR FG,SKC,-99.99,VWS V12.07,2013-02-13 05:25:00,
2013-02-12 23:30:00,23.5,21.3,29.84,SW,215,0.0,2.0,91,0.00, +TSGR FG,SKC,-99.99,VWS V12.07,2013-02-13 05:30:00,
2013-02-12 23:35:00,23.6,21.4,29.84,SW,221,2.0,4.0,91,0.00, +TSGR FG,SKC,-99.99,VWS V12.07,2013-02-13 05:35:00,
2013-02-12 23:40:00,23.6,21.4,29.84,SSW,213,2.0,4.0,91,0.00, +TSGR FG,SKC,-99.99,VWS V12.07,2013-02-13 05:40:00,
2013-02-12 23:45:00,23.6,21.4,29.84,SW,221,3.0,4.0,91,0.00, +TSGR FG,SKC,-99.99,VWS V12.07,2013-02-13 05:45:00,
2013-02-12 23:50:00,23.6,21.4,29.84,SSW,213,2.0,4.0,91,0.00, +TSGR FG,SKC,-99.99,VWS V12.07,2013-02-13 05:50:00,
2013-02-12 23:55:00,23.6,21.4,29.84,SSW,207,2.0,3.0,91,0.00, +TSGR FG,SKC,-99.99,VWS V12.07,2013-02-13 05:55:00,